Le nostre stazioni meteo in Italia

Pubblicità
Il mio iltempo24.it
Napoli/Capodichino, Italia (16289): Temperatura & dewpoint: 04.04.2020 04:00:00 - 10.04.2020 04:00:00 (CEST)Napoli/Capodichino, Italia (16289): velocità del vento: 04.04.2020 04:00:00 - 10.04.2020 04:00:00 (CEST)Napoli/Capodichino, Italia (16289): direzione del vento: 04.04.2020 04:00:00 - 10.04.2020 04:00:00 (CEST)Napoli/Capodichino, Italia (16289): reduced air pressure: 04.04.2020 04:00:00 - 10.04.2020 04:00:00 (CEST)Napoli/Capodichino, Italia (16289): visibility: 04.04.2020 04:00:00 - 10.04.2020 04:00:00 (CEST)Napoli/Capodichino, Italia (16289): precipitazioni: 04.04.2020 04:00:00 - 10.04.2020 04:00:00 (CEST)
Data & Tempo tt [°C] td [°C] ff [km/h] ff [kn] dd ppp [hPa] vv [km] rr [mm]
10.04.2020 04:00:00 8,0 7,0 4 2 N - 8 -
10.04.2020 03:00:00 10,0 9,0 0 0 N - 10 -
10.04.2020 02:00:00 10,0 9,0 2 1 - 1022,3 7 -
10.04.2020 01:00:00 11,0 10,0 2 1 NE - 4,4 -
10.04.2020 00:00:00 12,0 11,0 2 1 ENE - 8 -
09.04.2020 23:00:00 12,7 10,9 4 2 NE 1022,6 10 0,0
09.04.2020 22:00:00 14,0 12,0 5 3 NNO - 10 -
09.04.2020 21:00:00 14,0 11,0 5 3 NNO - 10 -
09.04.2020 20:00:00 15,0 10,2 9 5 NO 1021,6 10 -
09.04.2020 19:00:00 17,0 9,0 9 5 NO - 10 -
09.04.2020 18:00:00 18,0 9,0 8 4 S - 10 -
09.04.2020 17:00:00 18,3 8,9 11 6 S 1020,7 10 0,0
09.04.2020 16:00:00 18,0 7,0 18 10 SSO - 10 -
09.04.2020 15:00:00 19,0 6,0 15 8 SSO - 10 -
09.04.2020 14:00:00 19,0 5,5 9 5 SSO 1022,0 10 -
09.04.2020 13:00:00 18,0 7,0 11 6 SSO - 10 -
09.04.2020 12:00:00 18,0 2,0 8 4 S - 10 -
09.04.2020 11:00:00 17,2 1,5 5 3 S 1023,1 10 0,0
09.04.2020 10:00:00 15,0 1,0 5 3 NE - 10 -
09.04.2020 09:00:00 13,0 2,0 4 2 ENE - 10 -
09.04.2020 08:00:00 10,9 -0,8 4 2 NNE 1022,6 10 -
09.04.2020 07:00:00 8,0 1,0 4 2 NNE - 10 -
09.04.2020 06:00:00 8,0 2,0 4 2 N - 10 -
09.04.2020 05:00:00 8,3 3,3 4 2 N 1022,0 10 0,0
09.04.2020 04:00:00 11,0 6,0 4 2 - - 10 -
09.04.2020 03:00:00 10,0 5,0 4 2 NNO - 10 -
09.04.2020 02:00:00 10,2 5,6 5 3 ONO 1022,8 10 -
09.04.2020 01:00:00 12,0 6,0 8 4 ENE - 10 -
09.04.2020 00:00:00 12,0 6,0 2 1 NNO - 10 -
08.04.2020 23:00:00 12,6 6,2 0 0 N 1023,3 10 0,0
08.04.2020 22:00:00 14,0 6,0 8 4 NE - 10 -
08.04.2020 21:00:00 15,0 6,0 8 4 NE - 10 -
08.04.2020 20:00:00 14,8 4,8 8 4 NO 1022,9 10 -
08.04.2020 19:00:00 17,0 2,0 13 7 NO - 10 -
08.04.2020 18:00:00 19,0 -3,0 18 10 NO - 10 -
08.04.2020 17:00:00 19,6 -2,6 18 10 ONO 1022,5 10 0,0
08.04.2020 16:00:00 21,0 -2,0 18 10 ONO - 10 -
08.04.2020 15:00:00 20,0 0,0 16 9 SSO - 10 -
08.04.2020 14:00:00 20,3 1,5 11 6 SSO 1023,6 10 -
08.04.2020 13:00:00 20,0 -2,0 13 7 SSO - 10 -
08.04.2020 12:00:00 19,0 -1,0 4 2 - - 10 -
08.04.2020 11:00:00 18,8 -0,6 4 2 - 1025,1 10 0,0
08.04.2020 10:00:00 17,0 0,0 4 2 - - 10 -
08.04.2020 09:00:00 15,0 0,0 9 5 N - 10 -
08.04.2020 08:00:00 12,4 0,6 9 5 NNO 1025,3 10 -
08.04.2020 07:00:00 10,0 -1,0 5 3 N - 10 -
08.04.2020 06:00:00 10,0 0,0 8 4 NE - 10 -
08.04.2020 05:00:00 11,3 0,0 9 5 E 1025,5 10 0,0
08.04.2020 04:00:00 13,0 0,0 11 6 ENE - 10 -
08.04.2020 03:00:00 13,0 0,0 13 7 E - 10 -
08.04.2020 02:00:00 14,8 -0,9 15 8 E 1026,1 10 -
08.04.2020 01:00:00 14,0 0,0 13 7 E - 10 -
08.04.2020 00:00:00 14,0 1,0 9 5 ESE - 10 -
07.04.2020 23:00:00 13,9 1,2 2 1 - 1026,0 10 0,0
07.04.2020 22:00:00 16,0 1,0 5 3 E - 10 -
07.04.2020 21:00:00 17,0 1,0 8 4 ENE - 10 -
07.04.2020 20:00:00 18,2 0,7 8 4 ESE 1025,2 10 -
07.04.2020 19:00:00 20,0 1,0 16 9 ENE - 10 -
07.04.2020 18:00:00 21,0 1,0 21 11 ENE - 10 -
07.04.2020 17:00:00 21,2 0,0 22 12 ENE 1024,5 10 0,0
07.04.2020 16:00:00 22,0 0,0 21 11 E - 10 -
07.04.2020 15:00:00 22,0 0,0 16 9 ENE - 10 -
07.04.2020 14:00:00 21,7 1,9 15 8 ENE 1025,2 10 -
07.04.2020 13:00:00 20,0 0,0 18 10 ENE - 10 -
07.04.2020 12:00:00 20,0 0,0 18 10 ENE - 10 -
07.04.2020 11:00:00 18,8 0,5 18 10 NE 1026,0 10 0,0
07.04.2020 10:00:00 17,0 -1,0 11 6 ENE - 10 -
07.04.2020 09:00:00 - - - - - - - -
07.04.2020 08:00:00 13,6 1,2 8 4 ENE 1026,1 - -
07.04.2020 07:00:00 - - - - - - - -
07.04.2020 06:00:00 - - - - - - - -
07.04.2020 05:00:00 12,1 2,1 8 4 N 1025,5 - 0,0
07.04.2020 04:00:00 - - - - - - - -
07.04.2020 03:00:00 - - - - - - - -
07.04.2020 02:00:00 11,7 3,5 2 1 - 1025,8 - -
07.04.2020 01:00:00 - - - - - - - -
07.04.2020 00:00:00 - - - - - - - -
06.04.2020 23:00:00 13,9 2,5 9 5 E 1025,2 10 0,0
06.04.2020 22:00:00 16,0 4,0 9 5 E - 10 -
06.04.2020 21:00:00 16,0 5,0 13 7 ENE - 10 -
06.04.2020 20:00:00 16,9 5,1 13 7 E 1024,1 10 -
06.04.2020 19:00:00 17,0 6,0 4 2 - - 10 -
06.04.2020 18:00:00 19,0 3,0 13 7 ENE - 10 -
06.04.2020 17:00:00 18,9 4,2 16 9 E 1023,1 10 0,0
06.04.2020 16:00:00 19,0 4,0 4 2 - - 10 -
06.04.2020 15:00:00 19,0 5,0 11 6 SO - 10 -
06.04.2020 14:00:00 19,8 3,0 15 8 E 1022,6 10 -
06.04.2020 13:00:00 20,0 4,0 13 7 ESE - 10 -
06.04.2020 12:00:00 19,0 4,0 15 8 ENE - 10 -
06.04.2020 11:00:00 17,9 4,7 15 8 ENE 1022,4 10 0,0
06.04.2020 10:00:00 16,0 2,0 11 6 NE - 10 -
06.04.2020 09:00:00 15,0 4,0 13 7 NE - 10 -
06.04.2020 08:00:00 13,2 3,7 13 7 NE 1021,1 10 -
06.04.2020 07:00:00 13,0 3,0 9 5 NNE - 10 -
06.04.2020 06:00:00 13,0 3,0 15 8 NE - 10 -
06.04.2020 05:00:00 12,5 3,1 9 5 NE 1020,2 10 0,0
06.04.2020 04:00:00 13,0 4,0 9 5 NE - 10 -
06.04.2020 03:00:00 13,0 3,0 5 3 NE - 10 -
06.04.2020 02:00:00 13,5 1,9 5 3 NNE 1020,1 10 -
06.04.2020 01:00:00 13,0 1,0 8 4 NE - 10 -
06.04.2020 00:00:00 14,0 0,0 11 6 NE - 10 -
05.04.2020 23:00:00 13,7 -0,1 13 7 ENE 1019,8 10 0,0
05.04.2020 22:00:00 15,0 0,0 15 8 ENE - 10 -
05.04.2020 21:00:00 16,0 0,0 21 11 ENE - 10 -
05.04.2020 20:00:00 16,4 0,3 24 13 ENE 1018,2 10 -
05.04.2020 19:00:00 17,0 0,0 18 10 ENE - 10 -
05.04.2020 18:00:00 18,0 0,0 29 16 ENE - 10 -
05.04.2020 17:00:00 17,9 1,0 28 15 ENE 1016,6 10 0,0
05.04.2020 16:00:00 19,0 1,0 29 16 NE - 10 -
05.04.2020 15:00:00 19,0 1,0 29 16 ENE - 10 -
05.04.2020 14:00:00 19,3 2,1 26 14 NE 1016,5 10 -
05.04.2020 13:00:00 19,0 1,0 26 14 NE - 10 -
05.04.2020 12:00:00 18,0 1,0 26 14 NE - 10 -
05.04.2020 11:00:00 16,7 1,1 16 9 NE 1017,3 10 0,0
05.04.2020 10:00:00 16,0 1,0 16 9 NNE - 10 -
05.04.2020 09:00:00 14,0 0,0 15 8 N - 10 -
05.04.2020 08:00:00 11,5 0,1 11 6 NNO 1017,0 10 -
05.04.2020 07:00:00 11,0 -1,0 9 5 N - 10 -
05.04.2020 06:00:00 12,0 -2,0 9 5 NNE - 10 -
05.04.2020 05:00:00 12,3 -1,7 11 6 N 1016,2 10 0,0
05.04.2020 04:00:00 11,0 -2,0 5 3 N - 10 -
05.04.2020 03:00:00 12,0 -3,0 8 4 N - 10 -
05.04.2020 02:00:00 10,2 -2,1 8 4 N 1016,8 10 -
05.04.2020 01:00:00 12,0 -3,0 9 5 NNO - 10 -
05.04.2020 00:00:00 13,0 -3,0 11 6 NE - 10 -
04.04.2020 23:00:00 12,8 -2,8 5 3 E 1017,0 10 0,0
04.04.2020 22:00:00 13,0 -3,0 8 4 ENE - 10 -
04.04.2020 21:00:00 15,0 -4,0 16 9 NE - 10 -
04.04.2020 20:00:00 15,1 -3,8 18 10 NE 1015,5 10 -
04.04.2020 19:00:00 17,0 -3,0 24 13 NE - 10 -
04.04.2020 18:00:00 18,0 -3,0 31 17 ENE - 10 -
04.04.2020 17:00:00 18,2 -2,8 35 19 ENE 1014,1 10 0,0
04.04.2020 16:00:00 20,0 -1,0 28 15 NE - 10 -
04.04.2020 15:00:00 19,0 0,0 29 16 ENE - 10 -
04.04.2020 14:00:00 19,1 0,0 31 17 ENE 1014,0 10 -
04.04.2020 13:00:00 19,0 3,0 22 12 NE - 10 -
04.04.2020 12:00:00 17,0 3,0 22 12 E - 10 -
04.04.2020 11:00:00 15,4 3,7 24 13 ENE 1015,0 10 0,0
04.04.2020 10:00:00 14,0 3,0 31 17 E - 10 -
04.04.2020 09:00:00 12,0 1,0 28 15 ENE - 10 -
04.04.2020 08:00:00 10,9 -0,1 16 9 ENE 1013,3 10 -
04.04.2020 07:00:00 9,0 0,0 15 8 NE - 10 -
04.04.2020 06:00:00 9,0 2,0 13 7 NNE - 10 -
04.04.2020 05:00:00 8,2 1,3 16 9 NE 1012,8 10 0,0
04.04.2020 04:00:00 8,0 1,0 15 8 ENE - 10 -

tt = Temperatura
td = dewpoint
ff = velocità del vento
dd = direzione del vento
ppp = reduced air pressure
vv = visibility
rr = precipitazioni

Stazioni seguenti

WeatherPro
AMSI
MeteoEarth